Location: Unspecified
(33.6682°S, 0.0000°E)
Time: 22:40:35
(UTC+00:00)

Vanguard 1 - Pass Details

Date: 29 June 2019
Orbit: 653 x 3830 km, 34.3° (Epoch: 18 July)

Event Time Altitude Azimuth Distance (km) Brightness Sun altitude
Rises 22:41:48 0° 276° (W) 6,789 14.6 -69.3°
Reaches altitude 10° 22:54:06 10° 310° (NW) 6,575 14.2 -71.5°
Maximum altitude 22:56:47 10° 317° (NW) 6,659 14.2 -72.0°
Drops below altitude 10° 22:59:34 10° 325° (NW) 6,784 14.3 -72.5°
Sets 23:14:32 0° 358° (N) 7,903 14.6 -75.0°
